Dewpoint
54 43 40 29 19 22 21 21 29 20 25 35 35 29 28 42 31 23 51 60 67 68 69 70 71 72 72 72 71 72 72 71 70 70 69 67 66 64 64 64 63 62 62 61 61 64 65 68 68
50 38 33 24 18 15 16 26 19 20 35 38 34 36 41 43 49 53 57 66 68 68 69 70 70 72 72 72 72 71 71 71 70 69 69 67 65 64 62 61 61 60 60 60 61 63 66 67 66
41 33 26 21 18 13 17 20 20 27 36 24 35 40 43 45 50 52 56 68 69 68 69 69 70 72 72 72 71 71 71 71 70 69 68 67 65 65 63 62 59 58 57 58 60 62 64 66 65
34 30 22 17 20 18 21 20 21 30 27 30 38 41 45 49 49 54 64 68 68 68 69 69 70 72 71 71 71 70 70 70 69 69 68 67 66 66 65 63 60 56 55 56 59 60 62 63 62
31 25 18 18 16 20 23 20 24 25 21 28 30 37 44 50 56 58 65 67 67 67 68 69 70 71 71 71 71 71 70 70 70 69 68 67 66 66 65 64 61 57 54 54 57 58 59 59 58
26 23 16 17 22 22 25 20 21 20 22 30 38 43 44 45 54 56 65 65 66 67 68 68 68 69 70 71 71 71 71 71 70 70 69 68 66 66 65 64 62 59 56 53 54 54 55 56 54
23 22 19 18 21 22 19 20 17 17 24 24 37 36 40 45 53 55 59 61 63 66 67 67 67 67 67 68 69 69 70 70 70 70 69 69 68 67 66 65 63 61 59 56 54 53 54 53 52
23 21 15 23 16 17 22 17 16 18 19 29 32 30 39 45 52 49 51 53 55 59 63 65 67 67 67 67 65 66 67 68 68 68 67 66 66 66 65 64 63 61 59 57 55 54 53 52 51
18 14 14 14 16 16 19 18 20 23 24 26 28 33 36 49 46 47 48 47 49 49 50 53 62 64 66 65 65 63 65 66 66 65 64 63 65 64 63 63 63 62 60 57 54 51 51 51 50
16 14 15 17 16 27 20 19 22 21 23 28 29 30 43 46 44 50 51 53 49 49 46 47 48 52 54 62 67 66 66 66 65 65 64 64 63 64 64 61 61 62 60 57 54 51 47 42 38
17 12 18 21 25 24 20 19 21 21 21 21 23 29 42 42 44 50 50 51 49 45 45 48 49 50 50 54 64 67 67 66 65 66 65 65 64 64 63 62 60 57 55 52 50 47 45 43 41
25 20 18 25 27 22 20 21 22 20 20 26 23 32 41 41 41 43 45 43 41 42 45 48 49 50 50 50 57 63 65 66 65 65 65 64 64 63 62 62 60 58 55 52 50 49 47 47 44
23 21 24 27 26 30 27 24 21 22 22 28 27 35 39 41 39 38 37 36 38 42 45 48 49 50 51 49 62 61 63 63 63 65 65 64 63 62 62 62 61 58 56 53 51 50 49 47 44
25 26 25 26 26 25 26 31 33 28 27 27 27 31 36 38 39 36 35 35 39 43 45 47 49 50 52 53 59 60 61 61 62 62 64 64 63 62 61 60 59 57 56 54 53 51 50 48 44
25 24 21 20 26 25 28 21 23 25 27 26 27 28 30 33 35 36 35 36 39 44 45 47 49 51 54 54 58 58 59 59 59 59 60 62 62 61 60 58 56 56 55 53 51 49 49 44 39
22 22 21 21 26 25 20 17 19 24 26 26 27 27 29 30 32 33 34 36 40 44 45 47 51 53 54 52 55 54 55 55 56 57 57 58 59 59 57 56 55 54 53 50 47 45 43 40 36
22 18 21 20 26 24 21 19 23 27 26 25 26 27 28 29 30 31 32 35 39 44 45 47 47 52 52 50 51 50 51 52 53 54 54 54 55 56 55 54 53 50 47 45 42 42 40 36 33
20 21 22 21 26 24 23 22 23 25 26 26 26 27 27 28 29 30 32 34 40 44 45 46 46 48 49 47 45 45 45 44 47 50 51 51 50 51 51 49 46 43 39 39 40 40 39 37 28
20 22 24 22 24 23 23 23 23 24 26 25 26 26 26 27 28 29 31 33 41 43 44 45 45 48 46 45 45 44 44 41 42 44 46 47 46 47 47 44 40 34 35 37 40 38 36 33 30
23 25 22 23 25 24 24 24 25 25 25 25 25 26 26 27 27 28 30 33 40 43 44 44 45 47 46 45 42 41 38 34 36 37 38 40 41 41 42 41 34 31 32 35 36 34 28 25 27
23 22 22 22 25 26 24 23 23 24 25 25 26 26 26 26 27 27 29 31 38 42 44 45 45 45 45 43 34 32 33 33 33 33 35 33 35 36 37 34 30 27 31 33 28 29 28 23 21
23 26 25 24 24 22 25 19 22 23 23 25 25 26 26 26 27 27 28 30 36 40 44 45 45 45 44 36 36 38 35 34 34 32 30 29 30 31 31 28 25 25 25 25 24 22 21 22 17
25 28 27 27 25 24 23 22 22 26 24 24 24 26 27 27 27 27 28 29 33 39 44 45 44 44 42 37 38 38 36 30 29 29 27 27 26 27 26 24 22 22 22 21 20 17 17 17 17
29 27 27 29 26 22 24 22 19 22 23 24 25 26 27 28 28 27 28 30 34 40 43 44 44 43 38 36 36 38 34 29 29 27 26 25 25 24 23 22 21 21 19 18 18 18 16 17 16
27 25 20 18 20 20 25 22 19 21 22 25 25 25 27 29 28 28 28 31 37 40 42 43 44 42 38 36 35 35 33 30 30 26 25 23 22 21 20 20 20 19 19 18 18 17 16 15 15
26 25 22 13 16 17 25 23 23 27 27 27 27 28 30 29 28 28 29 31 37 40 41 43 43 41 37 36 34 32 31 31 31 27 24 22 20 20 20 19 18 18 17 17 16 16 18 18 18
26 25 26 20 14 19 18 20 23 26 27 28 29 29 30 30 29 29 29 32 37 39 40 42 42 41 37 36 33 30 29 28 27 24 22 21 20 19 19 18 17 17 17 16 16 17 18 18 18
26 29 24 25 16 14 18 20 20 23 25 26 27 28 29 29 29 28 29 32 36 38 40 42 42 40 36 34 32 30 28 27 25 23 21 20 19 18 18 17 17 17 17 17 17 18 18 18 19
27 27 26 26 24 18 16 15 26 23 24 24 26 28 29 29 29 28 29 32 36 37 39 40 40 37 34 33 30 28 27 25 23 23 21 19 18 17 17 16 16 17 17 17 17 17 17 17 17
27 26 26 22 20 24 23 18 26 27 27 28 27 27 31 29 29 28 28 32 34 35 36 37 38 36 35 31 27 26 24 23 22 21 19 19 17 17 16 16 17 17 17 18 16 16 17 16 15
Lifted_Index
7 7 5 5 4 3 3 4 5 5 5 5 5 5 5 4 4 2 -1 -2 -3 -4 -4 -4 -5 -5 -5 -5 -5 -5 -5 -5 -5 -4 -3 -2 -1 1 1 2 3 3 4 4 4 3 1 0 0
7 6 5 5 4 3 3 4 5 5 5 5 5 5 4 4 2 1 -1 -3 -4 -4 -4 -4 -5 -5 -5 -5 -5 -5 -5 -5 -5 -4 -3 -2 -1 1 2 3 4 4 5 5 4 3 2 1 1
7 6 6 5 4 3 3 4 5 6 6 6 5 5 4 3 2 0 -1 -3 -4 -4 -4 -4 -5 -5 -5 -5 -5 -5 -5 -5 -4 -4 -3 -2 -1 0 1 3 4 6 6 6 5 4 3 2 2
6 6 6 5 4 3 4 5 6 6 6 6 6 5 4 3 2 0 -2 -4 -4 -4 -4 -4 -5 -5 -5 -5 -5 -5 -5 -5 -4 -4 -3 -2 -1 -0 1 2 4 6 7 7 6 5 4 4 4
6 6 5 4 4 4 5 6 6 6 6 7 6 5 4 3 2 -0 -3 -4 -4 -4 -4 -4 -5 -5 -5 -5 -5 -5 -5 -4 -4 -4 -3 -2 -1 -0 1 2 4 5 7 7 7 7 7 7 7
6 6 4 3 3 4 6 7 7 6 6 7 6 6 4 3 1 -0 -3 -4 -4 -4 -4 -4 -4 -4 -5 -5 -5 -5 -5 -5 -4 -4 -3 -3 -2 -1 0 1 3 5 6 7 8 8 8 9 10
6 5 4 3 3 4 6 7 7 7 7 7 7 6 5 3 1 -1 -3 -3 -3 -3 -3 -3 -4 -4 -4 -4 -4 -4 -4 -5 -4 -4 -4 -3 -2 -1 0 1 3 4 6 7 7 8 9 10 11
6 5 4 3 3 4 6 7 7 7 7 7 7 6 5 3 1 -1 -3 -3 -3 -3 -3 -3 -3 -3 -3 -3 -3 -3 -4 -4 -4 -3 -3 -2 -1 -1 0 2 3 4 6 7 7 8 8 9 10
6 5 3 3 4 5 6 7 7 7 7 7 7 7 6 3 0 -1 -2 -3 -3 -3 -3 -3 -3 -3 -3 -3 -3 -3 -3 -3 -3 -2 -2 -1 -1 0 1 2 3 5 6 7 7 7 8 8 8
5 4 4 4 5 6 6 7 7 7 7 7 7 8 6 3 1 -1 -2 -2 -3 -3 -3 -3 -2 -2 -2 -2 -2 -2 -2 -2 -2 -2 -1 -1 0 1 2 3 4 5 6 7 7 7 7 8 8
5 5 5 6 6 7 7 7 7 7 7 7 7 8 7 4 2 0 -1 -1 -2 -2 -2 -2 -1 -1 -1 -1 -1 -2 -2 -2 -2 -1 -1 -0 1 1 2 3 3 4 5 6 6 7 7 7 7
5 5 6 6 7 7 7 7 7 7 7 8 8 8 7 5 3 2 2 1 1 -0 -1 -1 -1 -0 -0 -0 -0 -0 -1 -1 -2 -1 -1 -0 1 1 2 2 3 3 4 5 5 6 6 7 7
5 6 6 7 7 7 7 7 7 7 8 8 8 8 7 6 5 5 5 5 4 3 3 2 2 2 1 1 1 1 0 -0 -1 -1 -1 -0 0 1 1 2 2 3 4 5 5 5 6 6 7
6 6 6 7 7 7 7 6 6 7 8 8 8 8 8 7 7 7 7 7 7 7 7 7 7 6 5 3 2 2 1 1 1 0 0 0 0 1 1 2 2 3 4 5 5 6 6 7 7
6 5 5 6 7 7 6 5 6 7 8 8 8 8 8 8 7 8 8 8 9 9 9 9 9 9 8 6 4 3 2 2 2 2 1 1 1 1 1 2 3 4 5 6 6 6 7 7 8
5 4 4 5 6 7 6 5 5 7 8 8 8 8 8 7 7 7 8 8 9 9 9 10 10 10 9 8 5 3 3 3 2 2 1 1 1 2 2 3 4 5 6 6 6 7 7 7 8
4 3 3 4 5 6 5 4 5 7 7 7 7 7 7 7 7 7 8 8 9 9 9 9 10 10 9 8 6 4 4 3 3 2 2 2 2 2 3 3 4 5 6 6 6 6 7 8 8
3 3 3 4 5 5 5 4 5 7 7 7 7 6 6 6 6 7 7 8 9 9 9 9 9 10 9 8 6 5 5 4 4 3 3 2 2 2 3 4 5 5 6 6 6 7 8 9 10
4 3 3 4 5 5 4 4 5 6 7 6 6 6 6 6 6 7 7 8 8 9 9 9 9 9 9 8 6 5 5 5 5 4 4 4 3 3 3 4 5 6 6 6 7 8 9 11 12
4 4 4 4 6 6 5 4 4 5 6 6 6 6 6 6 6 7 7 7 8 8 9 9 9 9 9 8 7 6 6 6 5 6 5 5 5 4 4 5 5 6 7 8 9 10 11 12 13
4 4 4 4 5 5 4 3 3 4 5 5 6 6 6 6 6 7 7 7 7 7 8 9 10 10 10 9 7 6 6 6 6 6 6 7 6 5 5 5 6 7 8 10 11 12 13 14 14
4 5 5 5 4 4 4 3 2 3 4 4 4 5 5 6 7 7 7 7 7 7 8 9 10 10 10 9 8 7 6 7 7 7 7 7 7 6 6 6 7 8 10 13 14 14 15 15 15
5 6 6 5 4 3 3 2 2 3 3 3 4 4 5 6 6 6 6 6 7 7 8 9 10 10 10 9 8 7 7 7 7 7 7 7 7 6 7 7 9 11 13 15 16 16 16 16 16
6 5 5 4 3 2 2 2 2 3 4 4 4 4 5 6 6 6 6 6 6 7 8 9 10 10 10 10 9 8 7 7 7 7 7 7 7 7 7 9 11 14 16 16 17 17 17 17 17
5 4 3 2 1 1 2 2 3 4 6 5 5 5 5 5 5 5 5 6 6 6 7 9 10 10 10 10 9 8 7 7 7 7 7 7 7 7 8 11 14 16 16 17 17 16 16 17 17
4 4 2 1 1 1 2 3 4 6 7 6 5 5 5 5 5 5 5 6 6 6 7 8 9 10 10 10 9 8 8 8 8 7 7 7 6 7 9 13 16 16 17 17 16 16 16 17 17
4 4 4 3 2 1 2 3 4 6 6 6 5 5 4 4 5 5 5 6 6 6 7 8 9 10 10 10 9 8 8 8 8 7 7 7 6 7 10 14 16 17 16 16 16 16 16 17 17
5 5 4 3 2 1 1 2 4 6 6 6 5 4 4 4 4 5 5 6 6 6 7 8 9 10 10 10 9 8 8 8 8 8 7 7 7 8 12 15 16 16 16 16 16 16 16 17 17
5 5 5 4 3 2 1 2 4 6 6 5 5 4 4 4 5 5 5 6 6 7 7 8 9 10 10 10 9 8 8 8 8 8 8 7 7 9 12 15 16 16 16 16 16 16 16 17 17
5 5 5 4 3 3 2 3 5 6 6 5 5 4 4 4 5 5 5 5 6 7 7 8 8 9 10 10 10 9 8 8 8 8 8 7 8 10 13 15 16 16 16 16 16 16 16 17 17